CZ-6A DEB

Satellite information

Favourite Embed

Satellite Type and Status

DEBRISIN ORBIT

Key statistics

Satellite CZ-6A DEB at a glance.

Uptime

1129

Days in orbit

Revolutions

≈ 14.7

Per day

Orbit

SSO

Sun Synchronous Orbit

Inclination

98.8

Latest

Satellite identification and parameters

Extended collection of information and parameters for CZ-6A DEB.

Object identification

Identified? True

Debris? True

Object name: CZ-6A DEB

International designator: 2022-151S

Object number (NORAD): 54275

Object ID (CCSDS): 54275

Country: PEOPLES REPUBLIC OF CHINA (PRC)

Current information (Y/N): Y

RCS size: SMALL

Orbital parameters

Period: 98.154 minutes

Inclination: 98.8239 deg

SMA: 7048.528 km

Apoapsis: 729.846 km

Periapsis: 610.939 km

RAAN: 69.1046 deg

Eccentricy: 0.00843491

Argument of periapsis: 139.1127 deg

Mean anomaly: 221.6443 deg

Mean motion: 14.67084617 rev/day

Mean motion (dot): 0.00019102 rev/day2

B* drag term: 0.0032274909 1/REarth

Two-line elements (TLE)

Creation date: Dec. 13, 2025, 5:47 p.m.

Reference frame: TEME

Reference center: EARTH

Epoch: Dec. 13, 2025, 4:06 a.m. UTC

TLE line 0: 0 CZ-6A DEB

TLE line 1: 1 54275U 22151S 25347.17150931 .00019102 00000-0 32275-2 0 9996

TLE line 2: 2 54275 98.8239 69.1046 0084349 139.1127 221.6443 14.67084617162883

Live tracking on map

Real-time ground track for satellite CZ-6A DEB.

In-orbit conjunctions

A list of the most updated potential collisions computed for object CZ-6A DEB.

Target Orbit TCA Probability of collision Miss distance Type
SDS-1 SSO 2025-08-21 16:49:35 0.0003972657 684.0 (m) PAYLOAD
FENGYUN 1C DEB SSO 2024-06-03 18:21:09 0.0001355242 72.0 (m) DEBRIS

Associated space launch

Chinese satellite reported for atmospheric/ocean/environmental/spatial parameter research purposes, details TBD.

CZ-6A DEB was lifted into orbit during the mission ‘Long March 6A | Yunhai 3’, on board a Long March 6A space rocket.

The launch took place on Nov. 11, 2022, 10:52 p.m. from Launch Complex 9A.

For more information about the launch, click the button.

Launch to space Long March 6A | Yunhai 3
Long March 6A | Yunhai 3

Agency: N/A

Status: Launch Successful

Launch date: Nov. 11, 2022, 10:52 p.m. UTC

Rocket: Long March 6A

Launch pad: Launch Complex 9A

Location: Taiyuan Satellite Launch Center, People's Republic of China

...

Latest news about this satellite

There are no fresh news available about this satellite. Check back as we update our databases every day.


Newsletter sign-up

Weekly statistics, charts and insights to help you stay on top of the space industry.